Weather History for KSSC - December, 2013

Change the Weather History Date:

Sunday, December 22, 2013

  Actual Average Record
Temperature  
Mean Temperature 73 °F -  
Max Temperature 79 °F 53 °F 79 °F (2013)
Min Temperature 67 °F 32 °F 23 °F (2008)
Cooling Degree Days 8    
Growing Degree Days 23 (Base 50)    
Moisture  
Dew Point 66 °F    
Average Humidity 83    
Maximum Humidity 95    
Minimum Humidity 56    
Precipitation  
Precipitation 0.00 in - - ()
Sea Level Pressure  
Sea Level Pressure 30.06 in    
Wind  
Wind Speed 9 mph (SSW)    
Max Wind Speed 20 mph    
Max Gust Speed 26 mph    
Visibility 10 miles    
Events Rain    
Averages and records for this station are not official NWS values.
T = Trace of Precipitation, MM = Missing Value Source: NWS Daily Summary

Daily Weather History Graph

Daily Weather History Graph

Search for Another Location

Airport or City:

Trip Planner

Search our weather history database for the weather conditions in past years. The results will help you decide how hot, cold, wet, or windy it might be!

Date:

Astronomy

Dec. 22, 2013 Rise Set
Actual Time 7:23 AM EST 5:17 PM EST
Civil Twilight 6:56 AM EST 5:45 PM EST
Nautical Twilight 6:24 AM EST 6:16 PM EST
Astronomical Twilight 5:54 AM EST 6:47 PM EST
Moon 10:15 PM EST (12/22) 10:31 AM EST (12/22)
Length of Visible Light 10h 49m
Length of Day
9h 53m
Waning Gibbous, 77% of the Moon is Illuminated
Dec 22
Waning Gibbous
Dec 25
Last Quarter
Jan 1
New
Jan 7
First Quarter
Jan 15
Full

Hourly Weather History & Observations

Time (EST) Temp. Dew Point Humidity Pressure Visibility Wind Dir Wind Speed Gust Speed Precip Events Conditions
12:18 AM 69.8 °F 66.2 °F 88% 30.07 in 10.0 mi South 6.9 mph - N/A   Overcast
12:58 AM 69.1 °F 66.7 °F 92% 30.06 in 10.0 mi South 8.1 mph - N/A   Overcast
1:58 AM 68.7 °F 66.4 °F 92% 30.05 in 10.0 mi South 9.2 mph - N/A   Overcast
2:33 AM 68.0 °F 66.2 °F 94% 30.05 in 10.0 mi South 9.2 mph - N/A   Overcast
2:48 AM 69.8 °F 66.2 °F 88% 30.05 in 10.0 mi South 9.2 mph - N/A   Overcast
2:58 AM 69.8 °F 66.2 °F 88% 30.04 in 10.0 mi South 8.1 mph - N/A   Overcast
3:58 AM 70.5 °F 66.9 °F 88% 30.04 in 10.0 mi South 12.7 mph 25.3 mph N/A   Overcast
4:58 AM 70.7 °F 67.1 °F 88% 30.04 in 10.0 mi SSW 10.4 mph - N/A   Overcast
5:24 AM 69.8 °F 66.2 °F 88% 30.05 in 10.0 mi South 11.5 mph - N/A Rain Light Rain
5:40 AM 69.8 °F 68.0 °F 94% 30.05 in 10.0 mi South 10.4 mph - N/A   Overcast
5:58 AM 70.3 °F 67.3 °F 90% 30.04 in 10.0 mi South 9.2 mph - 0.00 in   Overcast
6:48 AM 69.8 °F 66.2 °F 88% 30.05 in 10.0 mi South 9.2 mph - N/A   Mostly Cloudy
6:58 AM 70.3 °F 66.7 °F 88% 30.05 in 10.0 mi South 8.1 mph - N/A   Mostly Cloudy
7:03 AM 69.8 °F 66.2 °F 88% 30.05 in 10.0 mi South 8.1 mph - N/A   Mostly Cloudy
7:08 AM 69.8 °F 66.2 °F 88% 30.05 in 10.0 mi South 9.2 mph - N/A   Overcast
7:58 AM 69.8 °F 66.0 °F 88% 30.05 in 10.0 mi South 10.4 mph - N/A   Overcast
8:18 AM 69.8 °F 66.2 °F 88% 30.05 in 10.0 mi South 10.4 mph - N/A   Overcast
8:23 AM 71.6 °F 66.2 °F 83% 30.05 in 10.0 mi South 10.4 mph - N/A   Overcast
8:43 AM 71.6 °F 66.2 °F 83% 30.06 in 10.0 mi South 13.8 mph - N/A   Overcast
8:58 AM 70.9 °F 66.2 °F 85% 30.06 in 10.0 mi South 13.8 mph 19.6 mph N/A   Overcast
9:08 AM 71.6 °F 66.2 °F 83% 30.06 in 10.0 mi South 11.5 mph - N/A   Overcast
9:53 AM 71.6 °F 66.2 °F 83% 30.09 in 10.0 mi South 13.8 mph - N/A   Overcast
9:58 AM 72.5 °F 65.8 °F 80% 30.09 in 10.0 mi South 15.0 mph - N/A   Overcast
10:03 AM 73.4 °F 66.2 °F 78% 30.09 in 10.0 mi South 15.0 mph - N/A   Overcast
10:08 AM 73.4 °F 66.2 °F 78% 30.09 in 10.0 mi South 16.1 mph 21.9 mph N/A   Overcast
10:58 AM 73.8 °F 65.7 °F 76% 30.11 in 10.0 mi SSW 10.4 mph 20.7 mph N/A   Overcast
11:48 AM 75.2 °F 66.2 °F 73% 30.10 in 10.0 mi SSW 15.0 mph - N/A   Mostly Cloudy
11:58 AM 75.2 °F 65.8 °F 73% 30.09 in 10.0 mi SSW 10.4 mph - N/A   Mostly Cloudy
12:58 PM 77.7 °F 65.3 °F 65% 30.06 in 10.0 mi SW 16.1 mph 23.0 mph N/A   Mostly Cloudy
1:18 PM 78.8 °F 64.4 °F 61% 30.06 in 10.0 mi SW 17.3 mph - N/A   Mostly Cloudy
1:23 PM 78.8 °F 64.4 °F 61% 30.05 in 10.0 mi SW 16.1 mph - N/A   Mostly Cloudy
1:58 PM 79.5 °F 63.9 °F 59% 30.04 in 10.0 mi SW 19.6 mph 26.5 mph N/A   Scattered Clouds
2:58 PM 79.9 °F 63.5 °F 57% 30.03 in 10.0 mi SSW 13.8 mph - N/A   Partly Cloudy
3:58 PM 79.2 °F 62.1 °F 56% 30.02 in 10.0 mi South 12.7 mph - N/A   Scattered Clouds
4:58 PM 76.8 °F 62.1 °F 60% 30.03 in 10.0 mi South 12.7 mph - N/A   Overcast
5:58 PM 74.5 °F 62.2 °F 66% 30.05 in 10.0 mi South 8.1 mph - N/A   Mostly Cloudy
6:58 PM 69.3 °F 61.3 °F 76% 30.07 in 10.0 mi SSE 3.5 mph - N/A   Scattered Clouds
7:58 PM 71.8 °F 64.8 °F 78% 30.07 in 10.0 mi South 5.8 mph - N/A   Scattered Clouds
8:58 PM 71.2 °F 66.4 °F 85% 30.07 in 10.0 mi South 9.2 mph - N/A   Mostly Cloudy
9:58 PM 70.0 °F 66.0 °F 87% 30.06 in 10.0 mi South 8.1 mph - N/A   Scattered Clouds
10:13 PM 69.8 °F 66.2 °F 88% 30.08 in 10.0 mi SW 10.4 mph - N/A   Overcast
10:23 PM 69.8 °F 66.2 °F 88% 30.08 in 10.0 mi SW 6.9 mph - N/A   Overcast
10:33 PM 69.8 °F 66.2 °F 88% 30.08 in 10.0 mi SW 5.8 mph - N/A   Overcast
10:38 PM 69.8 °F 66.2 °F 88% 30.08 in 10.0 mi WSW 6.9 mph - N/A   Overcast
10:57 PM 69.8 °F 64.4 °F 83% 30.08 in 10.0 mi WSW 5.8 mph - N/A   Light Drizzle
10:58 PM 69.8 °F 64.4 °F 83% 30.08 in 10.0 mi WSW 5.8 mph - N/A   Light Drizzle
11:07 PM 69.8 °F 66.2 °F 88% 30.08 in 10.0 mi WSW 4.6 mph - N/A   Overcast
11:12 PM 69.8 °F 66.2 °F 88% 30.08 in 9.0 mi WSW 4.6 mph - N/A Rain Light Rain
11:17 PM 68.0 °F 66.2 °F 94% 30.09 in 9.0 mi SW 4.6 mph - N/A Rain Light Rain
11:22 PM 68.0 °F 66.2 °F 94% 30.09 in 10.0 mi SW 4.6 mph - N/A Rain Light Rain
11:33 PM 68.0 °F 66.2 °F 94% 30.08 in 10.0 mi South 3.5 mph - N/A   Overcast
11:38 PM 68.0 °F 66.2 °F 94% 30.08 in 10.0 mi South 3.5 mph - N/A   Overcast
11:58 PM 67.3 °F 65.8 °F 95% 30.08 in 10.0 mi SSE 1.2 mph - 0.00 in   Overcast
11:59 PM 68.0 °F 66.2 °F 94% 30.08 in 10.0 mi SSE 1.2 mph - N/A Rain Light Rain